Darstellungsparameter: Aktuell verwendete Einstellungen:
Skalierung der Graphiken ... ?
xyx+y,   Skalierungsfaktor:      Skalierung: Modus: x, Faktor: 1
Darstellungszeitraum ... ?
Vom - - bis: - -   Zeitraum: 03.01.2020 - 05.01.2020
Min/Max/Avg-Anzeige ... ?
Zeige MMA aktuell
Zeige MMA Monat
Zeige MMA alles
Zeige --A aktuell
Zeige --A Monat
Zeige --A alles
Keine MMA-Anzeige
MMA:
Average (ber die Originaldaten)
MMA-Basis: 03.01.2020 - 05.01.2020
Quicknavigation für Darstellung... ?
Tage:      1T, 2T, 3T, 5T -1T -2T -3T -5T +1T +2T +3T +5T
Wochen: 1W, 2W, 3W -1W -2W -3W +1W +2W +3W
Monate: 1M, 3M, 6M -1M -3M -6M +1M +3M +6M
Jahre:    1J, 3J, 5J, 10J -1J -3J -5J -10J +1J +3J +5J +10J
Nutze für die Darstellung ... ?
Originaldaten oder Mittelwerte auf ...
Stundenbasis Tagesbasis Wochenbasis
Monatsbasis Jahresbasis      Datenbasis: Original-Daten
Darstellen als:
Statistik (Auto) Statistik J:M      Darstellung:
Zur Graphik,    zurück zur Übersicht aller Sensoren.
 
Tabellarische Datenbersicht: ?
 
Sensor: Nr:Datum:Temp:Abs-Feuchte:Windchill:Wind:
Aussen-T/F 1 03-01-2020 00:00:00 3.7 C 5.98 g/m*3 3.7 C 0 km/h
2 03-01-2020 00:05:00 3.7 C 5.98 g/m*3 3.7 C 0 km/h
3 03-01-2020 00:10:00 3.7 C 5.98 g/m*3 3.7 C 0 km/h
4 03-01-2020 00:15:00 3.7 C 5.98 g/m*3 3.7 C 0 km/h
5 03-01-2020 00:20:00 3.7 C 5.98 g/m*3 3.7 C 0 km/h
6 03-01-2020 00:25:00 3.8 C 6.02 g/m*3 3.8 C 0 km/h
7 03-01-2020 00:30:00 3.8 C 6.02 g/m*3 3.8 C 0 km/h
8 03-01-2020 00:35:00 3.8 C 6.02 g/m*3 3.8 C 0 km/h
9 03-01-2020 00:40:00 3.9 C 6.06 g/m*3 3.9 C 0 km/h
10 03-01-2020 00:45:00 3.9 C 6.06 g/m*3 3.9 C 0 km/h
11 03-01-2020 00:50:00 4 C 6.1 g/m*3 4 C 0 km/h
12 03-01-2020 00:55:00 4.1 C 6.14 g/m*3 4.1 C 0 km/h
13 03-01-2020 01:00:00 4.1 C 6.14 g/m*3 4.1 C 0 km/h
14 03-01-2020 01:05:00 4.1 C 6.14 g/m*3 4.1 C 0 km/h
15 03-01-2020 01:10:00 4.2 C 6.19 g/m*3 4.2 C 0 km/h
16 03-01-2020 01:15:00 4.2 C 6.19 g/m*3 4.2 C 0 km/h
17 03-01-2020 01:20:00 4.2 C 6.19 g/m*3 4.2 C 0 km/h
18 03-01-2020 01:25:00 4.3 C 6.23 g/m*3 4.3 C 0 km/h
19 03-01-2020 01:30:00 4.3 C 6.23 g/m*3 4.3 C 0 km/h
20 03-01-2020 01:35:00 4.3 C 6.23 g/m*3 4.3 C 0 km/h
21 03-01-2020 01:40:00 4.3 C 6.23 g/m*3 4.3 C 0 km/h
22 03-01-2020 01:45:00 4.3 C 6.23 g/m*3 4.3 C 0 km/h
23 03-01-2020 01:50:00 4.3 C 6.23 g/m*3 4.3 C 0 km/h
24 03-01-2020 01:55:00 4.3 C 6.23 g/m*3 4.3 C 0 km/h
25 03-01-2020 02:00:00 4.4 C 6.27 g/m*3 4.4 C 0 km/h
Sensor: Nr:Datum:Temp:Abs-Feuchte:Windchill:Wind:
Aussen-T/F 26 03-01-2020 02:05:00 4.4 C 6.27 g/m*3 4.4 C 0 km/h
27 03-01-2020 02:10:00 4.5 C 6.31 g/m*3 4.5 C 0 km/h
28 03-01-2020 02:15:00 4.5 C 6.31 g/m*3 4.5 C 0 km/h
29 03-01-2020 02:20:00 4.5 C 6.31 g/m*3 4.5 C 0 km/h
30 03-01-2020 02:25:00 4.5 C 6.31 g/m*3 4.5 C 0 km/h
31 03-01-2020 02:30:00 4.6 C 6.35 g/m*3 4.6 C 0 km/h
32 03-01-2020 02:35:00 4.6 C 6.35 g/m*3 4.6 C 0 km/h
33 03-01-2020 02:40:00 4.6 C 6.35 g/m*3 4.6 C 0 km/h
34 03-01-2020 02:45:00 4.6 C 6.35 g/m*3 4.6 C 0 km/h
35 03-01-2020 02:50:00 4.6 C 6.35 g/m*3 4.6 C 0 km/h
36 03-01-2020 02:55:00 4.6 C 6.35 g/m*3 4.6 C 0 km/h
37 03-01-2020 03:00:00 4.6 C 6.35 g/m*3 4.6 C 0 km/h
38 03-01-2020 03:05:00 4.7 C 6.46 g/m*3 4.7 C 0 km/h
39 03-01-2020 03:10:00 4.7 C 6.46 g/m*3 4.7 C 0 km/h
40 03-01-2020 03:15:00 4.8 C 6.5 g/m*3 4.8 C 0 km/h
41 03-01-2020 03:20:00 4.8 C 6.5 g/m*3 4.8 C 0 km/h
42 03-01-2020 03:25:00 4.8 C 6.5 g/m*3 4.8 C 0 km/h
43 03-01-2020 03:30:00 4.8 C 6.5 g/m*3 4.8 C 0 km/h
44 03-01-2020 03:35:00 4.8 C 6.5 g/m*3 4.8 C 0 km/h
45 03-01-2020 03:40:00 4.8 C 6.5 g/m*3 4.8 C 0 km/h
46 03-01-2020 03:45:00 4.8 C 6.5 g/m*3 4.8 C 0 km/h
47 03-01-2020 03:50:00 4.8 C 6.5 g/m*3 4.8 C 0 km/h
48 03-01-2020 03:55:00 4.8 C 6.5 g/m*3 4.8 C 0 km/h
49 03-01-2020 04:00:00 4.8 C 6.5 g/m*3 4.8 C 0 km/h
50 03-01-2020 04:05:00 4.8 C 6.5 g/m*3 4.8 C 0 km/h
Sensor: Nr:Datum:Temp:Abs-Feuchte:Windchill:Wind:
Aussen-T/F 51 03-01-2020 04:10:00 4.8 C 6.5 g/m*3 4.8 C 0 km/h
52 03-01-2020 04:15:00 4.8 C 6.5 g/m*3 4.8 C 0 km/h
53 03-01-2020 04:20:00 4.8 C 6.5 g/m*3 4.8 C 0 km/h
54 03-01-2020 04:25:00 4.9 C 6.55 g/m*3 4.9 C 0 km/h
55 03-01-2020 04:30:00 4.9 C 6.55 g/m*3 4.9 C 3.2 km/h
56 03-01-2020 04:35:00 4.9 C 6.55 g/m*3 4.9 C 0 km/h
57 03-01-2020 04:40:00 4.9 C 6.55 g/m*3 4.9 C 0 km/h
58 03-01-2020 04:45:00 4.9 C 6.55 g/m*3 4.9 C 0 km/h
59 03-01-2020 04:50:00 4.9 C 6.55 g/m*3 4.9 C 3.2 km/h
60 03-01-2020 04:55:00 5 C 6.59 g/m*3 5 C 1.6 km/h
61 03-01-2020 05:00:00 5 C 6.59 g/m*3 3.59 C 6.4 km/h
62 03-01-2020 05:05:00 5 C 6.59 g/m*3 5 C 3.2 km/h
63 03-01-2020 05:10:00 5.1 C 6.63 g/m*3 5.1 C 1.6 km/h
64 03-01-2020 05:15:00 5.1 C 6.63 g/m*3 5.1 C 4.8 km/h
65 03-01-2020 05:20:00 5.1 C 6.63 g/m*3 5.1 C 0 km/h
66 03-01-2020 05:25:00 5.1 C 6.63 g/m*3 5.1 C 0 km/h
67 03-01-2020 05:30:00 5.1 C 6.63 g/m*3 5.1 C 0 km/h
68 03-01-2020 05:35:00 5.1 C 6.63 g/m*3 5.1 C 0 km/h
69 03-01-2020 05:40:00 5.1 C 6.63 g/m*3 5.1 C 0 km/h
70 03-01-2020 05:45:00 5.1 C 6.63 g/m*3 5.1 C 0 km/h
71 03-01-2020 05:50:00 5.1 C 6.57 g/m*3 5.1 C 0 km/h
72 03-01-2020 05:55:00 5.1 C 6.57 g/m*3 5.1 C 0 km/h
73 03-01-2020 06:00:00 5.1 C 6.57 g/m*3 5.1 C 0 km/h
74 03-01-2020 06:05:00 5.1 C 6.57 g/m*3 5.1 C 0 km/h
75 03-01-2020 06:10:00 5.1 C 6.57 g/m*3 5.1 C 0 km/h
Sensor: Nr:Datum:Temp:Abs-Feuchte:Windchill:Wind:
Aussen-T/F 76 03-01-2020 06:15:00 5.1 C 6.57 g/m*3 5.1 C 0 km/h
77 03-01-2020 06:20:00 5.1 C 6.57 g/m*3 5.1 C 0 km/h
78 03-01-2020 06:25:00 5.1 C 6.57 g/m*3 5.1 C 1.6 km/h
79 03-01-2020 06:30:00 5.2 C 6.61 g/m*3 5.2 C 4.8 km/h
80 03-01-2020 06:35:00 5.3 C 6.65 g/m*3 5.3 C 1.6 km/h
81 03-01-2020 06:40:00 5.4 C 6.77 g/m*3 5.4 C 4.8 km/h
82 03-01-2020 06:45:00 5.8 C 6.95 g/m*3 4.52 C 6.4 km/h
83 03-01-2020 06:50:00 6.2 C 7.13 g/m*3 6.2 C 4.8 km/h
84 03-01-2020 06:55:00 6.6 C 7.32 g/m*3 4.04 C 12.9 km/h
85 03-01-2020 07:00:00 6.9 C 7.47 g/m*3 3.73 C 17.7 km/h
86 03-01-2020 07:05:00 7.2 C 7.54 g/m*3 4.53 C 14.5 km/h
87 03-01-2020 07:10:00 7.4 C 7.55 g/m*3 5.02 C 12.9 km/h
88 03-01-2020 07:15:00 7.7 C 7.54 g/m*3 5.38 C 12.9 km/h
89 03-01-2020 07:20:00 7.8 C 7.59 g/m*3 5.51 C 12.9 km/h
90 03-01-2020 07:25:00 8 C 7.61 g/m*3 4.93 C 19.3 km/h
91 03-01-2020 07:30:00 8.1 C 7.57 g/m*3 7.17 C 6.4 km/h
92 03-01-2020 07:35:00 8.2 C 7.54 g/m*3 5.36 C 17.7 km/h
93 03-01-2020 07:40:00 8.3 C 7.59 g/m*3 6.99 C 8.1 km/h
94 03-01-2020 07:45:00 8.3 C 7.5 g/m*3 6.99 C 8.1 km/h
95 03-01-2020 07:50:00 8.3 C 7.5 g/m*3 7.41 C 6.4 km/h
96 03-01-2020 07:55:00 8.3 C 7.5 g/m*3 6.99 C 8.1 km/h
97 03-01-2020 08:00:00 8.3 C 7.5 g/m*3 8.3 C 3.2 km/h
98 03-01-2020 08:05:00 8.3 C 7.5 g/m*3 6.99 C 8.1 km/h
99 03-01-2020 08:10:00 8.3 C 7.5 g/m*3 6.12 C 12.9 km/h
100 03-01-2020 08:15:00 8.3 C 7.42 g/m*3 6.37 C 11.3 km/h
Sensor: Nr:Datum:Temp:Abs-Feuchte:Windchill:Wind:
Aussen-T/F 101 03-01-2020 08:20:00 8.4 C 7.47 g/m*3 6.49 C 11.3 km/h
102 03-01-2020 08:25:00 8.4 C 7.47 g/m*3 7.52 C 6.4 km/h
103 03-01-2020 08:30:00 8.4 C 7.47 g/m*3 7.52 C 6.4 km/h
104 03-01-2020 08:35:00 8.3 C 7.42 g/m*3 8.3 C 3.2 km/h
105 03-01-2020 08:40:00 8.3 C 7.42 g/m*3 6.66 C 9.7 km/h
106 03-01-2020 08:45:00 8.4 C 7.47 g/m*3 8.4 C 4.8 km/h
107 03-01-2020 08:50:00 8.3 C 7.42 g/m*3 6.99 C 8.1 km/h
108 03-01-2020 08:55:00 8.4 C 7.38 g/m*3 5.8 C 16.1 km/h
109 03-01-2020 09:00:00 8.5 C 7.43 g/m*3 6.36 C 12.9 km/h
110 03-01-2020 09:05:00 8.5 C 7.43 g/m*3 7.22 C 8.1 km/h
111 03-01-2020 09:10:00 8.6 C 7.48 g/m*3 7.01 C 9.7 km/h
112 03-01-2020 09:15:00 8.6 C 7.39 g/m*3 6.73 C 11.3 km/h
113 03-01-2020 09:20:00 8.7 C 7.44 g/m*3 6.85 C 11.3 km/h
114 03-01-2020 09:25:00 8.7 C 7.44 g/m*3 7.13 C 9.7 km/h
115 03-01-2020 09:30:00 8.7 C 7.44 g/m*3 6.85 C 11.3 km/h
116 03-01-2020 09:35:00 8.7 C 7.44 g/m*3 6.6 C 12.9 km/h
117 03-01-2020 09:40:00 8.7 C 7.35 g/m*3 7.13 C 9.7 km/h
118 03-01-2020 09:45:00 8.8 C 7.49 g/m*3 7.58 C 8.1 km/h
119 03-01-2020 09:50:00 8.8 C 7.4 g/m*3 7.58 C 8.1 km/h
120 03-01-2020 09:55:00 8.8 C 7.4 g/m*3 7.25 C 9.7 km/h
121 03-01-2020 10:00:00 8.8 C 7.4 g/m*3 6.5 C 14.5 km/h
122 03-01-2020 10:05:00 8.9 C 7.45 g/m*3 6.06 C 19.3 km/h
123 03-01-2020 10:10:00 8.9 C 7.45 g/m*3 6.23 C 17.7 km/h
124 03-01-2020 10:15:00 8.9 C 7.45 g/m*3 7.09 C 11.3 km/h
125 03-01-2020 10:20:00 8.9 C 7.45 g/m*3 6.23 C 17.7 km/h
Sensor: Nr:Datum:Temp:Abs-Feuchte:Windchill:Wind:
Aussen-T/F 126 03-01-2020 10:25:00 9 C 7.41 g/m*3 6.54 C 16.1 km/h
127 03-01-2020 10:30:00 9 C 7.41 g/m*3 6.36 C 17.7 km/h
128 03-01-2020 10:35:00 9 C 7.41 g/m*3 6.54 C 16.1 km/h
129 03-01-2020 10:40:00 8.9 C 7.36 g/m*3 7.09 C 11.3 km/h
130 03-01-2020 10:45:00 8.9 C 7.45 g/m*3 6.42 C 16.1 km/h
131 03-01-2020 10:50:00 8.9 C 7.45 g/m*3 6.23 C 17.7 km/h
132 03-01-2020 10:55:00 8.9 C 7.45 g/m*3 5.9 C 20.9 km/h
133 03-01-2020 11:00:00 8.9 C 7.45 g/m*3 5.9 C 20.9 km/h
134 03-01-2020 11:05:00 8.8 C 7.4 g/m*3 5.62 C 22.5 km/h
135 03-01-2020 11:10:00 8.8 C 7.4 g/m*3 5.34 C 25.7 km/h
136 03-01-2020 11:15:00 8.8 C 7.4 g/m*3 5.48 C 24.1 km/h
137 03-01-2020 11:20:00 8.9 C 7.45 g/m*3 5.9 C 20.9 km/h
138 03-01-2020 11:25:00 8.9 C 7.45 g/m*3 6.06 C 19.3 km/h
139 03-01-2020 11:30:00 9 C 7.49 g/m*3 5.34 C 29 km/h
140 03-01-2020 11:35:00 9.1 C 7.54 g/m*3 7.33 C 11.3 km/h
141 03-01-2020 11:40:00 9.2 C 7.59 g/m*3 5.72 C 27.4 km/h
142 03-01-2020 11:45:00 9.2 C 7.59 g/m*3 6.13 C 22.5 km/h
143 03-01-2020 11:50:00 9.2 C 7.59 g/m*3 6.28 C 20.9 km/h
144 03-01-2020 11:55:00 9.1 C 7.54 g/m*3 5.73 C 25.7 km/h
145 03-01-2020 12:00:00 9.1 C 7.54 g/m*3 6.31 C 19.3 km/h
146 03-01-2020 12:05:00 9 C 7.49 g/m*3 5.87 C 22.5 km/h
147 03-01-2020 12:10:00 8.9 C 7.53 g/m*3 6.06 C 19.3 km/h
148 03-01-2020 12:15:00 8.9 C 7.53 g/m*3 5.21 C 29 km/h
149 03-01-2020 12:20:00 8.8 C 7.49 g/m*3 5.48 C 24.1 km/h
150 03-01-2020 12:25:00 8.9 C 7.53 g/m*3 5.6 C 24.1 km/h
Sensor: Nr:Datum:Temp:Abs-Feuchte:Windchill:Wind:
Aussen-T/F 151 03-01-2020 12:30:00 8.9 C 7.53 g/m*3 5.9 C 20.9 km/h
152 03-01-2020 12:35:00 8.9 C 7.53 g/m*3 6.23 C 17.7 km/h
153 03-01-2020 12:40:00 8.9 C 7.53 g/m*3 6.23 C 17.7 km/h
154 03-01-2020 12:45:00 8.8 C 7.49 g/m*3 6.11 C 17.7 km/h
155 03-01-2020 12:50:00 8.8 C 7.49 g/m*3 5.93 C 19.3 km/h
156 03-01-2020 12:55:00 8.8 C 7.49 g/m*3 6.3 C 16.1 km/h
157 03-01-2020 13:00:00 8.8 C 7.57 g/m*3 5.48 C 24.1 km/h
158 03-01-2020 13:05:00 8.8 C 7.57 g/m*3 5.93 C 19.3 km/h
159 03-01-2020 13:10:00 8.8 C 7.57 g/m*3 5.77 C 20.9 km/h
160 03-01-2020 13:15:00 8.8 C 7.57 g/m*3 5.62 C 22.5 km/h
161 03-01-2020 13:20:00 8.9 C 7.62 g/m*3 6.06 C 19.3 km/h
162 03-01-2020 13:25:00 8.8 C 7.57 g/m*3 5.48 C 24.1 km/h
163 03-01-2020 13:30:00 8.9 C 7.62 g/m*3 6.62 C 14.5 km/h
164 03-01-2020 13:35:00 9 C 7.67 g/m*3 5.87 C 22.5 km/h
165 03-01-2020 13:40:00 9 C 7.67 g/m*3 6.03 C 20.9 km/h
166 03-01-2020 13:45:00 9 C 7.67 g/m*3 6.54 C 16.1 km/h
167 03-01-2020 13:50:00 9.1 C 7.72 g/m*3 6.31 C 19.3 km/h
168 03-01-2020 13:55:00 9.1 C 7.72 g/m*3 6.31 C 19.3 km/h
169 03-01-2020 14:00:00 9.1 C 7.72 g/m*3 6.31 C 19.3 km/h
170 03-01-2020 14:05:00 9.1 C 7.81 g/m*3 7.33 C 11.3 km/h
171 03-01-2020 14:10:00 8.9 C 7.71 g/m*3 6.42 C 16.1 km/h
172 03-01-2020 14:15:00 8.9 C 7.71 g/m*3 6.42 C 16.1 km/h
173 03-01-2020 14:20:00 8.9 C 7.71 g/m*3 6.85 C 12.9 km/h
174 03-01-2020 14:25:00 8.9 C 7.71 g/m*3 6.62 C 14.5 km/h
175 03-01-2020 14:30:00 8.9 C 7.71 g/m*3 6.62 C 14.5 km/h
Sensor: Nr:Datum:Temp:Abs-Feuchte:Windchill:Wind:
Aussen-T/F 176 03-01-2020 14:35:00 8.9 C 7.71 g/m*3 6.85 C 12.9 km/h
177 03-01-2020 14:40:00 8.9 C 7.8 g/m*3 6.85 C 12.9 km/h
178 03-01-2020 14:45:00 8.9 C 7.8 g/m*3 7.09 C 11.3 km/h
179 03-01-2020 14:50:00 8.9 C 7.8 g/m*3 6.23 C 17.7 km/h
180 03-01-2020 14:55:00 8.9 C 7.8 g/m*3 7.37 C 9.7 km/h
181 03-01-2020 15:00:00 9 C 7.85 g/m*3 6.54 C 16.1 km/h
182 03-01-2020 15:05:00 9.1 C 7.9 g/m*3 6.48 C 17.7 km/h
183 03-01-2020 15:10:00 9.2 C 7.95 g/m*3 6.61 C 17.7 km/h
184 03-01-2020 15:15:00 9.3 C 8 g/m*3 7.33 C 12.9 km/h
185 03-01-2020 15:20:00 9.3 C 8 g/m*3 6.92 C 16.1 km/h
186 03-01-2020 15:25:00 9.3 C 7.91 g/m*3 7.58 C 11.3 km/h
187 03-01-2020 15:30:00 9.3 C 7.91 g/m*3 7.12 C 14.5 km/h
188 03-01-2020 15:35:00 9.4 C 7.96 g/m*3 8.28 C 8.1 km/h
189 03-01-2020 15:40:00 9.4 C 7.96 g/m*3 7.46 C 12.9 km/h
190 03-01-2020 15:45:00 9.4 C 7.96 g/m*3 7.04 C 16.1 km/h
191 03-01-2020 15:50:00 9.4 C 7.96 g/m*3 7.97 C 9.7 km/h
192 03-01-2020 15:55:00 9.4 C 7.96 g/m*3 7.24 C 14.5 km/h
193 03-01-2020 16:00:00 9.4 C 7.96 g/m*3 7.7 C 11.3 km/h
194 03-01-2020 16:05:00 9.4 C 8.05 g/m*3 7.97 C 9.7 km/h
195 03-01-2020 16:10:00 9.4 C 8.05 g/m*3 7.7 C 11.3 km/h
196 03-01-2020 16:15:00 9.4 C 8.05 g/m*3 7.04 C 16.1 km/h
197 03-01-2020 16:20:00 9.4 C 8.05 g/m*3 7.24 C 14.5 km/h
198 03-01-2020 16:25:00 9.4 C 8.05 g/m*3 7.04 C 16.1 km/h
199 03-01-2020 16:30:00 9.3 C 8 g/m*3 6.73 C 17.7 km/h
200 03-01-2020 16:35:00 9.3 C 8 g/m*3 6.73 C 17.7 km/h
Sensor: Nr:Datum:Temp:Abs-Feuchte:Windchill:Wind:
Aussen-T/F 201 03-01-2020 16:40:00 9.4 C 8.05 g/m*3 6.86 C 17.7 km/h
202 03-01-2020 16:45:00 9.4 C 8.05 g/m*3 7.24 C 14.5 km/h
203 03-01-2020 16:50:00 9.4 C 8.05 g/m*3 6.25 C 24.1 km/h
204 03-01-2020 16:55:00 9.4 C 8.05 g/m*3 6.86 C 17.7 km/h
205 03-01-2020 17:00:00 9.4 C 8.05 g/m*3 6.69 C 19.3 km/h
206 03-01-2020 17:05:00 9.3 C 8.09 g/m*3 7.12 C 14.5 km/h
207 03-01-2020 17:10:00 9.3 C 8.09 g/m*3 7.58 C 11.3 km/h
208 03-01-2020 17:15:00 9.2 C 8.04 g/m*3 6.99 C 14.5 km/h
209 03-01-2020 17:20:00 9.2 C 8.04 g/m*3 6.79 C 16.1 km/h
210 03-01-2020 17:25:00 9.2 C 8.04 g/m*3 6.44 C 19.3 km/h
211 03-01-2020 17:30:00 9.3 C 8.09 g/m*3 6.92 C 16.1 km/h
212 03-01-2020 17:35:00 9.3 C 8.09 g/m*3 7.12 C 14.5 km/h
213 03-01-2020 17:40:00 9.3 C 8.09 g/m*3 6.92 C 16.1 km/h
214 03-01-2020 17:45:00 9.3 C 8.09 g/m*3 6.92 C 16.1 km/h
215 03-01-2020 17:50:00 9.3 C 8.09 g/m*3 7.58 C 11.3 km/h
216 03-01-2020 17:55:00 9.4 C 8.14 g/m*3 7.04 C 16.1 km/h
217 03-01-2020 18:00:00 9.4 C 8.14 g/m*3 7.04 C 16.1 km/h
218 03-01-2020 18:05:00 9.4 C 8.14 g/m*3 7.46 C 12.9 km/h
219 03-01-2020 18:10:00 9.4 C 8.14 g/m*3 7.46 C 12.9 km/h
220 03-01-2020 18:15:00 9.5 C 8.19 g/m*3 7.36 C 14.5 km/h
221 03-01-2020 18:20:00 9.6 C 8.24 g/m*3 7.94 C 11.3 km/h
222 03-01-2020 18:25:00 9.6 C 8.24 g/m*3 6.94 C 19.3 km/h
223 03-01-2020 18:30:00 9.6 C 8.24 g/m*3 6.94 C 19.3 km/h
224 03-01-2020 18:35:00 9.6 C 8.24 g/m*3 6.5 C 24.1 km/h
225 03-01-2020 18:40:00 9.6 C 8.24 g/m*3 7.94 C 11.3 km/h
Sensor: Nr:Datum:Temp:Abs-Feuchte:Windchill:Wind:
Aussen-T/F 226 03-01-2020 18:45:00 9.7 C 8.3 g/m*3 7.61 C 14.5 km/h
227 03-01-2020 18:50:00 9.7 C 8.3 g/m*3 7.82 C 12.9 km/h
228 03-01-2020 18:55:00 9.7 C 8.3 g/m*3 7.61 C 14.5 km/h
229 03-01-2020 19:00:00 9.7 C 8.3 g/m*3 8.06 C 11.3 km/h
230 03-01-2020 19:05:00 9.6 C 8.24 g/m*3 7.48 C 14.5 km/h
231 03-01-2020 19:10:00 9.6 C 8.34 g/m*3 8.52 C 8.1 km/h
232 03-01-2020 19:15:00 9.6 C 8.34 g/m*3 8.21 C 9.7 km/h
233 03-01-2020 19:20:00 9.6 C 8.34 g/m*3 7.94 C 11.3 km/h
234 03-01-2020 19:25:00 9.6 C 8.34 g/m*3 8.52 C 8.1 km/h
235 03-01-2020 19:30:00 9.6 C 8.34 g/m*3 7.48 C 14.5 km/h
236 03-01-2020 19:35:00 9.6 C 8.34 g/m*3 7.7 C 12.9 km/h
237 03-01-2020 19:40:00 9.6 C 8.34 g/m*3 8.21 C 9.7 km/h
238 03-01-2020 19:45:00 9.6 C 8.34 g/m*3 7.94 C 11.3 km/h
239 03-01-2020 19:50:00 9.6 C 8.34 g/m*3 7.29 C 16.1 km/h
240 03-01-2020 19:55:00 9.6 C 8.34 g/m*3 7.94 C 11.3 km/h
241 03-01-2020 20:00:00 9.7 C 8.39 g/m*3 8.33 C 9.7 km/h
242 03-01-2020 20:05:00 9.7 C 8.39 g/m*3 7.82 C 12.9 km/h
243 03-01-2020 20:10:00 9.7 C 8.48 g/m*3 8.06 C 11.3 km/h
244 03-01-2020 20:15:00 9.7 C 8.48 g/m*3 8.33 C 9.7 km/h
245 03-01-2020 20:20:00 9.6 C 8.43 g/m*3 8.52 C 8.1 km/h
246 03-01-2020 20:25:00 9.6 C 8.43 g/m*3 7.94 C 11.3 km/h
247 03-01-2020 20:30:00 9.6 C 8.43 g/m*3 8.52 C 8.1 km/h
248 03-01-2020 20:35:00 9.6 C 8.43 g/m*3 8.52 C 8.1 km/h
249 03-01-2020 20:40:00 9.5 C 8.37 g/m*3 8.4 C 8.1 km/h
250 03-01-2020 20:45:00 9.5 C 8.47 g/m*3 8.4 C 8.1 km/h
Sensor: Nr:Datum:Temp:Abs-Feuchte:Windchill:Wind:
Aussen-T/F 251 03-01-2020 20:50:00 9.4 C 8.41 g/m*3 8.68 C 6.4 km/h
252 03-01-2020 20:55:00 9.4 C 8.5 g/m*3 7.97 C 9.7 km/h
253 03-01-2020 21:00:00 9.3 C 8.45 g/m*3 8.16 C 8.1 km/h
254 03-01-2020 21:05:00 9.2 C 8.3 g/m*3 6.61 C 17.7 km/h
255 03-01-2020 21:10:00 9.1 C 8.16 g/m*3 6.67 C 16.1 km/h
256 03-01-2020 21:15:00 8.8 C 8.01 g/m*3 6.5 C 14.5 km/h
257 03-01-2020 21:20:00 8.7 C 7.96 g/m*3 7.13 C 9.7 km/h
258 03-01-2020 21:25:00 8.7 C 7.96 g/m*3 6.6 C 12.9 km/h
259 03-01-2020 21:30:00 8.5 C 7.85 g/m*3 5.73 C 17.7 km/h
260 03-01-2020 21:35:00 8.4 C 7.8 g/m*3 6.49 C 11.3 km/h
261 03-01-2020 21:40:00 8.3 C 7.75 g/m*3 4.98 C 22.5 km/h
262 03-01-2020 21:45:00 8.1 C 7.66 g/m*3 4.89 C 20.9 km/h
263 03-01-2020 21:50:00 7.9 C 7.56 g/m*3 4.47 C 22.5 km/h
264 03-01-2020 21:55:00 7.8 C 7.51 g/m*3 5.06 C 16.1 km/h
265 03-01-2020 22:00:00 7.6 C 7.33 g/m*3 4.61 C 17.7 km/h
266 03-01-2020 22:05:00 7.5 C 7.28 g/m*3 4.9 C 14.5 km/h
267 03-01-2020 22:10:00 7.4 C 7.24 g/m*3 4.36 C 17.7 km/h
268 03-01-2020 22:15:00 7.4 C 7.24 g/m*3 5.28 C 11.3 km/h
269 03-01-2020 22:20:00 7.3 C 7.19 g/m*3 4.23 C 17.7 km/h
270 03-01-2020 22:25:00 7.3 C 7.19 g/m*3 4.23 C 17.7 km/h
271 03-01-2020 22:30:00 7.2 C 7.14 g/m*3 4.31 C 16.1 km/h
272 03-01-2020 22:35:00 7.2 C 7.14 g/m*3 4.31 C 16.1 km/h
273 03-01-2020 22:40:00 7.1 C 7.1 g/m*3 5.23 C 9.7 km/h
274 03-01-2020 22:45:00 6.9 C 7.01 g/m*3 5.34 C 8.1 km/h
275 03-01-2020 22:50:00 6.9 C 7.01 g/m*3 5.34 C 8.1 km/h
Sensor: Nr:Datum:Temp:Abs-Feuchte:Windchill:Wind:
Aussen-T/F 276 03-01-2020 22:55:00 6.8 C 6.96 g/m*3 5.67 C 6.4 km/h
277 03-01-2020 23:00:00 6.8 C 6.96 g/m*3 6.8 C 3.2 km/h
278 03-01-2020 23:05:00 6.7 C 6.91 g/m*3 5.11 C 8.1 km/h
279 03-01-2020 23:10:00 6.7 C 6.91 g/m*3 5.11 C 8.1 km/h
280 03-01-2020 23:15:00 6.7 C 6.91 g/m*3 5.11 C 8.1 km/h
281 03-01-2020 23:20:00 6.7 C 6.91 g/m*3 5.11 C 8.1 km/h
282 03-01-2020 23:25:00 6.7 C 6.91 g/m*3 5.56 C 6.4 km/h
283 03-01-2020 23:30:00 6.7 C 6.91 g/m*3 4.44 C 11.3 km/h
284 03-01-2020 23:35:00 6.7 C 6.91 g/m*3 5.11 C 8.1 km/h
285 03-01-2020 23:40:00 6.7 C 6.91 g/m*3 6.7 C 3.2 km/h
286 03-01-2020 23:45:00 6.6 C 6.87 g/m*3 6.6 C 3.2 km/h
287 03-01-2020 23:50:00 6.6 C 6.87 g/m*3 4.99 C 8.1 km/h
288 03-01-2020 23:55:00 6.6 C 6.87 g/m*3 4.04 C 12.9 km/h
289 04-01-2020 00:00:00 6.6 C 6.95 g/m*3 4.99 C 8.1 km/h
290 04-01-2020 00:05:00 6.6 C 6.95 g/m*3 4.04 C 12.9 km/h
291 04-01-2020 00:10:00 6.5 C 6.9 g/m*3 6.5 C 4.8 km/h
292 04-01-2020 00:15:00 6.4 C 6.85 g/m*3 6.4 C 4.8 km/h
293 04-01-2020 00:20:00 6.4 C 6.85 g/m*3 6.4 C 3.2 km/h
294 04-01-2020 00:25:00 6.3 C 6.81 g/m*3 5.1 C 6.4 km/h
295 04-01-2020 00:30:00 6.3 C 6.81 g/m*3 5.1 C 6.4 km/h
296 04-01-2020 00:35:00 6.2 C 6.77 g/m*3 4.98 C 6.4 km/h
297 04-01-2020 00:40:00 6.2 C 6.77 g/m*3 6.2 C 1.6 km/h
298 04-01-2020 00:45:00 6.2 C 6.77 g/m*3 6.2 C 0 km/h
299 04-01-2020 00:50:00 6.2 C 6.77 g/m*3 6.2 C 0 km/h
300 04-01-2020 00:55:00 6.2 C 6.77 g/m*3 6.2 C 0 km/h
Sensor: Nr:Datum:Temp:Abs-Feuchte:Windchill:Wind:
Aussen-T/F 301 04-01-2020 01:00:00 6.2 C 6.77 g/m*3 6.2 C 4.8 km/h
302 04-01-2020 01:05:00 6.2 C 6.77 g/m*3 6.2 C 1.6 km/h
303 04-01-2020 01:10:00 6.1 C 6.72 g/m*3 6.1 C 0 km/h
304 04-01-2020 01:15:00 6 C 6.68 g/m*3 6 C 4.8 km/h
305 04-01-2020 01:20:00 5.8 C 6.52 g/m*3 5.8 C 4.8 km/h
306 04-01-2020 01:25:00 5.8 C 6.59 g/m*3 5.8 C 3.2 km/h
307 04-01-2020 01:30:00 5.8 C 6.59 g/m*3 5.8 C 4.8 km/h
308 04-01-2020 01:35:00 5.7 C 6.48 g/m*3 5.7 C 1.6 km/h
309 04-01-2020 01:40:00 5.6 C 6.43 g/m*3 5.6 C 0 km/h
310 04-01-2020 01:45:00 5.3 C 6.31 g/m*3 5.3 C 0 km/h
311 04-01-2020 01:50:00 5.1 C 6.22 g/m*3 5.1 C 1.6 km/h
312 04-01-2020 01:55:00 4.9 C 6.14 g/m*3 4.9 C 0 km/h
313 04-01-2020 02:00:00 4.9 C 6.21 g/m*3 3.48 C 6.4 km/h
314 04-01-2020 02:05:00 4.8 C 6.17 g/m*3 4.8 C 4.8 km/h
315 04-01-2020 02:10:00 4.8 C 6.17 g/m*3 2.15 C 11.3 km/h
316 04-01-2020 02:15:00 4.9 C 6.21 g/m*3 3.48 C 6.4 km/h
317 04-01-2020 02:20:00 4.9 C 6.21 g/m*3 4.9 C 1.6 km/h
318 04-01-2020 02:25:00 4.8 C 6.1 g/m*3 4.8 C 1.6 km/h
319 04-01-2020 02:30:00 4.7 C 6.06 g/m*3 4.7 C 0 km/h
320 04-01-2020 02:35:00 4.6 C 6.02 g/m*3 4.6 C 0 km/h
321 04-01-2020 02:40:00 4.6 C 6.09 g/m*3 4.6 C 0 km/h
322 04-01-2020 02:45:00 4.5 C 6.05 g/m*3 4.5 C 0 km/h
323 04-01-2020 02:50:00 4.5 C 6.11 g/m*3 4.5 C 0 km/h
324 04-01-2020 02:55:00 4.5 C 6.11 g/m*3 4.5 C 0 km/h
325 04-01-2020 03:00:00 4.5 C 6.11 g/m*3 4.5 C 0 km/h
Sensor: Nr:Datum:Temp:Abs-Feuchte:Windchill:Wind:
Aussen-T/F 326 04-01-2020 03:05:00 4.5 C 6.11 g/m*3 4.5 C 0 km/h
327 04-01-2020 03:10:00 4.5 C 6.11 g/m*3 4.5 C 3.2 km/h
328 04-01-2020 03:15:00 4.6 C 6.15 g/m*3 4.6 C 0 km/h
329 04-01-2020 03:20:00 4.6 C 6.15 g/m*3 4.6 C 1.6 km/h
330 04-01-2020 03:25:00 4.5 C 6.11 g/m*3 4.5 C 0 km/h
331 04-01-2020 03:30:00 4.4 C 6.07 g/m*3 4.4 C 0 km/h
332 04-01-2020 03:35:00 4.3 C 6.03 g/m*3 4.3 C 1.6 km/h
333 04-01-2020 03:40:00 4.2 C 5.99 g/m*3 4.2 C 3.2 km/h
334 04-01-2020 03:45:00 4.2 C 6.06 g/m*3 4.2 C 4.8 km/h
335 04-01-2020 03:50:00 4.3 C 6.1 g/m*3 2.78 C 6.4 km/h
336 04-01-2020 03:55:00 4.4 C 6.14 g/m*3 4.4 C 4.8 km/h
337 04-01-2020 04:00:00 4.4 C 6.07 g/m*3 4.4 C 4.8 km/h
338 04-01-2020 04:05:00 4.4 C 6.07 g/m*3 4.4 C 4.8 km/h
339 04-01-2020 04:10:00 4.4 C 6.07 g/m*3 4.4 C 3.2 km/h
340 04-01-2020 04:15:00 4.3 C 6.03 g/m*3 4.3 C 0 km/h
341 04-01-2020 04:20:00 4.3 C 5.97 g/m*3 4.3 C 4.8 km/h
342 04-01-2020 04:25:00 4.2 C 5.93 g/m*3 4.2 C 3.2 km/h
343 04-01-2020 04:30:00 4.2 C 5.93 g/m*3 4.2 C 3.2 km/h
344 04-01-2020 04:35:00 4.1 C 5.89 g/m*3 4.1 C 1.6 km/h
345 04-01-2020 04:40:00 4 C 5.85 g/m*3 4 C 3.2 km/h
346 04-01-2020 04:45:00 3.9 C 5.87 g/m*3 3.9 C 3.2 km/h
347 04-01-2020 04:50:00 3.8 C 5.83 g/m*3 3.8 C 0 km/h
348 04-01-2020 04:55:00 3.8 C 5.83 g/m*3 3.8 C 0 km/h
349 04-01-2020 05:00:00 3.7 C 5.8 g/m*3 3.7 C 3.2 km/h
350 04-01-2020 05:05:00 3.7 C 5.8 g/m*3 3.7 C 3.2 km/h
Sensor: Nr:Datum:Temp:Abs-Feuchte:Windchill:Wind:
Aussen-T/F 351 04-01-2020 05:10:00 3.7 C 5.8 g/m*3 3.7 C 1.6 km/h
352 04-01-2020 05:15:00 3.6 C 5.76 g/m*3 3.6 C 0 km/h
353 04-01-2020 05:20:00 3.4 C 5.68 g/m*3 3.4 C 3.2 km/h
354 04-01-2020 05:25:00 3.4 C 5.68 g/m*3 3.4 C 0 km/h
355 04-01-2020 05:30:00 3.3 C 5.64 g/m*3 3.3 C 0 km/h
356 04-01-2020 05:35:00 3.2 C 5.6 g/m*3 3.2 C 0 km/h
357 04-01-2020 05:40:00 3.1 C 5.57 g/m*3 3.1 C 0 km/h
358 04-01-2020 05:45:00 2.9 C 5.49 g/m*3 2.9 C 3.2 km/h
359 04-01-2020 05:50:00 2.9 C 5.49 g/m*3 2.9 C 4.8 km/h
360 04-01-2020 05:55:00 2.8 C 5.51 g/m*3 2.8 C 4.8 km/h
361 04-01-2020 06:00:00 2.8 C 5.51 g/m*3 2.8 C 4.8 km/h
362 04-01-2020 06:05:00 2.8 C 5.51 g/m*3 2.8 C 4.8 km/h
363 04-01-2020 06:10:00 2.8 C 5.51 g/m*3 1.05 C 6.4 km/h
364 04-01-2020 06:15:00 2.9 C 5.55 g/m*3 0.64 C 8.1 km/h
365 04-01-2020 06:20:00 2.9 C 5.55 g/m*3 2.9 C 4.8 km/h
366 04-01-2020 06:25:00 3 C 5.59 g/m*3 1.28 C 6.4 km/h
367 04-01-2020 06:30:00 2.9 C 5.55 g/m*3 2.9 C 4.8 km/h
368 04-01-2020 06:35:00 2.9 C 5.55 g/m*3 0.64 C 8.1 km/h
369 04-01-2020 06:40:00 2.9 C 5.55 g/m*3 2.9 C 4.8 km/h
370 04-01-2020 06:45:00 2.9 C 5.55 g/m*3 0.22 C 9.7 km/h
371 04-01-2020 06:50:00 3 C 5.59 g/m*3 0.76 C 8.1 km/h
372 04-01-2020 06:55:00 3.1 C 5.57 g/m*3 3.1 C 3.2 km/h
373 04-01-2020 07:00:00 3.1 C 5.57 g/m*3 0.46 C 9.7 km/h
374 04-01-2020 07:05:00 3.1 C 5.57 g/m*3 1.4 C 6.4 km/h
375 04-01-2020 07:10:00 3 C 5.53 g/m*3 3 C 3.2 km/h
Sensor: Nr:Datum:Temp:Abs-Feuchte:Windchill:Wind:
Aussen-T/F 376 04-01-2020 07:15:00 3.1 C 5.57 g/m*3 1.4 C 6.4 km/h
377 04-01-2020 07:20:00 3.1 C 5.57 g/m*3 3.1 C 4.8 km/h
378 04-01-2020 07:25:00 3.1 C 5.57 g/m*3 1.4 C 6.4 km/h
379 04-01-2020 07:30:00 2.9 C 5.49 g/m*3 2.9 C 3.2 km/h
380 04-01-2020 07:35:00 2.8 C 5.46 g/m*3 2.8 C 3.2 km/h
381 04-01-2020 07:40:00 2.8 C 5.46 g/m*3 2.8 C 4.8 km/h
382 04-01-2020 07:45:00 2.8 C 5.46 g/m*3 2.8 C 3.2 km/h
383 04-01-2020 07:50:00 2.7 C 5.42 g/m*3 2.7 C 3.2 km/h
384 04-01-2020 07:55:00 2.7 C 5.42 g/m*3 2.7 C 1.6 km/h
385 04-01-2020 08:00:00 2.6 C 5.38 g/m*3 2.6 C 0 km/h
386 04-01-2020 08:05:00 2.5 C 5.35 g/m*3 2.5 C 0 km/h
387 04-01-2020 08:10:00 2.4 C 5.31 g/m*3 2.4 C 1.6 km/h
388 04-01-2020 08:15:00 2.4 C 5.37 g/m*3 2.4 C 1.6 km/h
389 04-01-2020 08:20:00 2.3 C 5.33 g/m*3 2.3 C 0 km/h
390 04-01-2020 08:25:00 2.2 C 5.29 g/m*3 2.2 C 4.8 km/h
391 04-01-2020 08:30:00 2.2 C 5.29 g/m*3 2.2 C 0 km/h
392 04-01-2020 08:35:00 2.2 C 5.29 g/m*3 2.2 C 4.8 km/h
393 04-01-2020 08:40:00 2.1 C 5.26 g/m*3 2.1 C 1.6 km/h
394 04-01-2020 08:45:00 2.1 C 5.26 g/m*3 0.24 C 6.4 km/h
395 04-01-2020 08:50:00 2.1 C 5.26 g/m*3 2.1 C 3.2 km/h
396 04-01-2020 08:55:00 2.1 C 5.26 g/m*3 2.1 C 3.2 km/h
397 04-01-2020 09:00:00 2 C 5.22 g/m*3 2 C 1.6 km/h
398 04-01-2020 09:05:00 1.9 C 5.19 g/m*3 1.9 C 3.2 km/h
399 04-01-2020 09:10:00 1.9 C 5.19 g/m*3 1.9 C 1.6 km/h
400 04-01-2020 09:15:00 1.9 C 5.24 g/m*3 1.9 C 1.6 km/h
Sensor: Nr:Datum:Temp:Abs-Feuchte:Windchill:Wind:
Aussen-T/F 401 04-01-2020 09:20:00 1.9 C 5.24 g/m*3 1.9 C 0 km/h
402 04-01-2020 09:25:00 1.9 C 5.24 g/m*3 1.9 C 1.6 km/h
403 04-01-2020 09:30:00 2 C 5.28 g/m*3 2 C 1.6 km/h
404 04-01-2020 09:35:00 2.1 C 5.31 g/m*3 2.1 C 3.2 km/h
405 04-01-2020 09:40:00 2.2 C 5.35 g/m*3 2.2 C 0 km/h
406 04-01-2020 09:45:00 2.3 C 5.39 g/m*3 0.47 C 6.4 km/h
407 04-01-2020 09:50:00 2.4 C 5.42 g/m*3 2.4 C 1.6 km/h
408 04-01-2020 09:55:00 2.4 C 5.42 g/m*3 2.4 C 3.2 km/h
409 04-01-2020 10:00:00 2.6 C 5.56 g/m*3 0.82 C 6.4 km/h
410 04-01-2020 10:05:00 2.7 C 5.54 g/m*3 0.94 C 6.4 km/h
411 04-01-2020 10:10:00 2.8 C 5.57 g/m*3 2.8 C 3.2 km/h
412 04-01-2020 10:15:00 2.8 C 5.57 g/m*3 2.8 C 4.8 km/h
413 04-01-2020 10:20:00 2.9 C 5.61 g/m*3 2.9 C 3.2 km/h
414 04-01-2020 10:50:00 4.6 C 6.15 g/m*3 2.64 C 8.1 km/h
415 04-01-2020 10:55:00 4.9 C 6.14 g/m*3 2.27 C 11.3 km/h
416 04-01-2020 11:00:00 5.2 C 6.2 g/m*3 3.34 C 8.1 km/h
417 04-01-2020 11:05:00 5.3 C 6.17 g/m*3 1.96 C 16.1 km/h
418 04-01-2020 11:10:00 5.6 C 6.22 g/m*3 2.33 C 16.1 km/h
419 04-01-2020 11:15:00 5.7 C 6.26 g/m*3 3.56 C 9.7 km/h
420 04-01-2020 11:20:00 5.7 C 6.19 g/m*3 4.4 C 6.4 km/h
421 04-01-2020 11:25:00 5.8 C 6.23 g/m*3 3.68 C 9.7 km/h
422 04-01-2020 11:30:00 5.8 C 6.23 g/m*3 4.52 C 6.4 km/h
423 04-01-2020 11:35:00 5.8 C 6.23 g/m*3 4.05 C 8.1 km/h
424 04-01-2020 11:40:00 5.9 C 6.27 g/m*3 4.63 C 6.4 km/h
425 04-01-2020 11:45:00 5.9 C 6.27 g/m*3 5.9 C 4.8 km/h
Sensor: Nr:Datum:Temp:Abs-Feuchte:Windchill:Wind:
Aussen-T/F 426 04-01-2020 11:50:00 6 C 6.24 g/m*3 4.75 C 6.4 km/h
427 04-01-2020 11:55:00 6.1 C 6.28 g/m*3 3.72 C 11.3 km/h
428 04-01-2020 12:00:00 6.1 C 6.28 g/m*3 3.18 C 14.5 km/h
429 04-01-2020 12:05:00 6.2 C 6.32 g/m*3 4.15 C 9.7 km/h
430 04-01-2020 12:10:00 6.3 C 6.37 g/m*3 5.1 C 6.4 km/h
431 04-01-2020 12:15:00 6.3 C 6.29 g/m*3 4.27 C 9.7 km/h
432 04-01-2020 12:20:00 6.4 C 6.33 g/m*3 4.39 C 9.7 km/h
433 04-01-2020 12:25:00 6.5 C 6.37 g/m*3 3.67 C 14.5 km/h
434 04-01-2020 12:30:00 6.6 C 6.42 g/m*3 4.63 C 9.7 km/h
435 04-01-2020 12:35:00 6.6 C 6.42 g/m*3 4.32 C 11.3 km/h
436 04-01-2020 12:40:00 6.6 C 6.42 g/m*3 4.32 C 11.3 km/h
437 04-01-2020 12:45:00 6.7 C 6.46 g/m*3 5.56 C 6.4 km/h
438 04-01-2020 12:50:00 6.7 C 6.46 g/m*3 4.75 C 9.7 km/h
439 04-01-2020 12:55:00 6.8 C 6.5 g/m*3 5.22 C 8.1 km/h
440 04-01-2020 13:00:00 6.8 C 6.5 g/m*3 4.29 C 12.9 km/h
441 04-01-2020 13:05:00 6.9 C 6.54 g/m*3 5.34 C 8.1 km/h
442 04-01-2020 13:10:00 7 C 6.51 g/m*3 4.8 C 11.3 km/h
443 04-01-2020 13:15:00 7.1 C 6.55 g/m*3 4.65 C 12.9 km/h
444 04-01-2020 13:20:00 7.1 C 6.55 g/m*3 4.19 C 16.1 km/h
445 04-01-2020 13:25:00 7.1 C 6.55 g/m*3 4.65 C 12.9 km/h
446 04-01-2020 13:30:00 7.1 C 6.55 g/m*3 4.92 C 11.3 km/h
447 04-01-2020 13:35:00 7.2 C 6.52 g/m*3 4.77 C 12.9 km/h
448 04-01-2020 13:40:00 7.2 C 6.59 g/m*3 4.77 C 12.9 km/h
449 04-01-2020 13:45:00 7.2 C 6.52 g/m*3 4.53 C 14.5 km/h
450 04-01-2020 13:50:00 7.3 C 6.56 g/m*3 5.16 C 11.3 km/h
Sensor: Nr:Datum:Temp:Abs-Feuchte:Windchill:Wind:
Aussen-T/F 451 04-01-2020 13:55:00 7.4 C 6.6 g/m*3 4.78 C 14.5 km/h
452 04-01-2020 14:00:00 7.4 C 6.6 g/m*3 4.36 C 17.7 km/h
453 04-01-2020 14:05:00 7.4 C 6.6 g/m*3 5.58 C 9.7 km/h
454 04-01-2020 14:10:00 7.4 C 6.6 g/m*3 5.93 C 8.1 km/h
455 04-01-2020 14:15:00 7.4 C 6.52 g/m*3 4.56 C 16.1 km/h
456 04-01-2020 14:20:00 7.5 C 6.64 g/m*3 5.14 C 12.9 km/h
457 04-01-2020 14:25:00 7.5 C 6.56 g/m*3 5.14 C 12.9 km/h
458 04-01-2020 14:30:00 7.6 C 6.61 g/m*3 5.26 C 12.9 km/h
459 04-01-2020 14:35:00 7.6 C 6.53 g/m*3 5.53 C 11.3 km/h
460 04-01-2020 14:40:00 7.5 C 6.56 g/m*3 5.7 C 9.7 km/h
461 04-01-2020 14:45:00 7.5 C 6.56 g/m*3 5.7 C 9.7 km/h
462 04-01-2020 14:50:00 7.5 C 6.56 g/m*3 4.9 C 14.5 km/h
463 04-01-2020 14:55:00 7.5 C 6.56 g/m*3 5.14 C 12.9 km/h
464 04-01-2020 15:00:00 7.4 C 6.52 g/m*3 5.58 C 9.7 km/h
465 04-01-2020 15:05:00 7.5 C 6.64 g/m*3 5.41 C 11.3 km/h
466 04-01-2020 15:10:00 7.5 C 6.64 g/m*3 6.05 C 8.1 km/h
467 04-01-2020 15:15:00 7.5 C 6.64 g/m*3 6.05 C 8.1 km/h
468 04-01-2020 15:20:00 7.4 C 6.6 g/m*3 5.58 C 9.7 km/h
469 04-01-2020 15:25:00 7.4 C 6.6 g/m*3 5.28 C 11.3 km/h
470 04-01-2020 15:30:00 7.4 C 6.6 g/m*3 5.58 C 9.7 km/h
471 04-01-2020 15:35:00 7.4 C 6.6 g/m*3 5.28 C 11.3 km/h
472 04-01-2020 15:40:00 7.4 C 6.6 g/m*3 5.93 C 8.1 km/h
473 04-01-2020 15:45:00 7.4 C 6.6 g/m*3 6.37 C 6.4 km/h
474 04-01-2020 15:50:00 7.4 C 6.6 g/m*3 5.28 C 11.3 km/h
475 04-01-2020 15:55:00 7.3 C 6.56 g/m*3 5.47 C 9.7 km/h
Sensor: Nr:Datum:Temp:Abs-Feuchte:Windchill:Wind:
Aussen-T/F 476 04-01-2020 16:00:00 7.3 C 6.56 g/m*3 5.47 C 9.7 km/h
477 04-01-2020 16:05:00 7.3 C 6.56 g/m*3 5.81 C 8.1 km/h
478 04-01-2020 16:10:00 7.3 C 6.56 g/m*3 6.25 C 6.4 km/h
479 04-01-2020 16:15:00 7.3 C 6.56 g/m*3 6.25 C 6.4 km/h
480 04-01-2020 16:20:00 7.3 C 6.56 g/m*3 5.47 C 9.7 km/h
481 04-01-2020 16:25:00 7.3 C 6.56 g/m*3 4.9 C 12.9 km/h
482 04-01-2020 16:30:00 7.3 C 6.56 g/m*3 6.25 C 6.4 km/h
483 04-01-2020 16:35:00 7.2 C 6.52 g/m*3 5.35 C 9.7 km/h
484 04-01-2020 16:40:00 7.2 C 6.52 g/m*3 5.35 C 9.7 km/h
485 04-01-2020 16:45:00 7.2 C 6.52 g/m*3 5.69 C 8.1 km/h
486 04-01-2020 16:50:00 7.2 C 6.52 g/m*3 5.35 C 9.7 km/h
487 04-01-2020 16:55:00 7.2 C 6.52 g/m*3 5.69 C 8.1 km/h
488 04-01-2020 17:00:00 7.2 C 6.44 g/m*3 4.77 C 12.9 km/h
489 04-01-2020 17:05:00 7.2 C 6.44 g/m*3 5.35 C 9.7 km/h
490 04-01-2020 17:10:00 7.2 C 6.52 g/m*3 4.77 C 12.9 km/h
491 04-01-2020 17:15:00 7.2 C 6.52 g/m*3 6.13 C 6.4 km/h
492 04-01-2020 17:20:00 7.2 C 6.52 g/m*3 5.69 C 8.1 km/h
493 04-01-2020 17:25:00 7.2 C 6.52 g/m*3 5.35 C 9.7 km/h
494 04-01-2020 17:30:00 7.2 C 6.52 g/m*3 4.77 C 12.9 km/h
495 04-01-2020 17:35:00 7.2 C 6.52 g/m*3 6.13 C 6.4 km/h
496 04-01-2020 17:40:00 7.2 C 6.52 g/m*3 5.69 C 8.1 km/h
497 04-01-2020 17:45:00 7.1 C 6.47 g/m*3 4.92 C 11.3 km/h
498 04-01-2020 17:50:00 7.1 C 6.47 g/m*3 6.02 C 6.4 km/h
499 04-01-2020 17:55:00 7.1 C 6.47 g/m*3 4.92 C 11.3 km/h
500 04-01-2020 18:00:00 7.1 C 6.47 g/m*3 5.58 C 8.1 km/h
Sensor: Nr:Datum:Temp:Abs-Feuchte:Windchill:Wind:
Aussen-T/F 501 04-01-2020 18:05:00 7.1 C 6.47 g/m*3 5.23 C 9.7 km/h
502 04-01-2020 18:10:00 7.1 C 6.47 g/m*3 4.92 C 11.3 km/h
503 04-01-2020 18:15:00 7.1 C 6.47 g/m*3 5.23 C 9.7 km/h
504 04-01-2020 18:20:00 7 C 6.43 g/m*3 5.11 C 9.7 km/h
505 04-01-2020 18:25:00 7.1 C 6.47 g/m*3 5.23 C 9.7 km/h
506 04-01-2020 18:30:00 7.1 C 6.47 g/m*3 4.65 C 12.9 km/h
507 04-01-2020 18:35:00 7.1 C 6.47 g/m*3 4.41 C 14.5 km/h
508 04-01-2020 18:40:00 7.1 C 6.47 g/m*3 5.58 C 8.1 km/h
509 04-01-2020 18:45:00 7.1 C 6.47 g/m*3 5.23 C 9.7 km/h
510 04-01-2020 18:50:00 7.1 C 6.47 g/m*3 5.23 C 9.7 km/h
511 04-01-2020 18:55:00 7 C 6.43 g/m*3 4.8 C 11.3 km/h
512 04-01-2020 19:00:00 7 C 6.43 g/m*3 5.9 C 6.4 km/h
513 04-01-2020 19:05:00 7 C 6.43 g/m*3 5.11 C 9.7 km/h
514 04-01-2020 19:10:00 7.1 C 6.47 g/m*3 4.92 C 11.3 km/h
515 04-01-2020 19:15:00 7.1 C 6.47 g/m*3 4.65 C 12.9 km/h
516 04-01-2020 19:20:00 7.1 C 6.47 g/m*3 5.23 C 9.7 km/h
517 04-01-2020 19:25:00 7.1 C 6.47 g/m*3 4.92 C 11.3 km/h
518 04-01-2020 19:30:00 7.1 C 6.55 g/m*3 4.92 C 11.3 km/h
519 04-01-2020 19:35:00 7 C 6.59 g/m*3 5.9 C 6.4 km/h
520 04-01-2020 19:40:00 6.9 C 6.62 g/m*3 4.68 C 11.3 km/h
521 04-01-2020 19:45:00 6.8 C 6.58 g/m*3 5.67 C 6.4 km/h
522 04-01-2020 19:50:00 6.7 C 6.61 g/m*3 6.7 C 4.8 km/h
523 04-01-2020 19:55:00 6.7 C 6.61 g/m*3 5.56 C 6.4 km/h
524 04-01-2020 20:00:00 6.6 C 6.57 g/m*3 4.63 C 9.7 km/h
525 04-01-2020 20:05:00 6.6 C 6.57 g/m*3 5.44 C 6.4 km/h
Sensor: Nr:Datum:Temp:Abs-Feuchte:Windchill:Wind:
Aussen-T/F 526 04-01-2020 20:10:00 6.5 C 6.6 g/m*3 5.33 C 6.4 km/h
527 04-01-2020 20:15:00 6.5 C 6.6 g/m*3 6.5 C 4.8 km/h
528 04-01-2020 20:20:00 6.5 C 6.6 g/m*3 5.33 C 6.4 km/h
529 04-01-2020 20:25:00 6.5 C 6.6 g/m*3 5.33 C 6.4 km/h
530 04-01-2020 20:30:00 6.5 C 6.52 g/m*3 4.87 C 8.1 km/h
531 04-01-2020 20:35:00 6.5 C 6.52 g/m*3 6.5 C 4.8 km/h
532 04-01-2020 20:40:00 6.5 C 6.52 g/m*3 6.5 C 4.8 km/h
533 04-01-2020 20:45:00 6.6 C 6.57 g/m*3 6.6 C 3.2 km/h
534 04-01-2020 20:50:00 6.6 C 6.57 g/m*3 4.63 C 9.7 km/h
535 04-01-2020 20:55:00 6.6 C 6.64 g/m*3 4.99 C 8.1 km/h
536 04-01-2020 21:00:00 6.7 C 6.69 g/m*3 5.56 C 6.4 km/h
537 04-01-2020 21:05:00 6.7 C 6.69 g/m*3 5.56 C 6.4 km/h
538 04-01-2020 21:10:00 6.7 C 6.76 g/m*3 5.11 C 8.1 km/h
539 04-01-2020 21:15:00 6.7 C 6.76 g/m*3 5.56 C 6.4 km/h
540 04-01-2020 21:20:00 6.6 C 6.79 g/m*3 4.99 C 8.1 km/h
541 04-01-2020 21:25:00 6.6 C 6.87 g/m*3 6.6 C 0 km/h
542 04-01-2020 21:30:00 6.4 C 6.78 g/m*3 6.4 C 4.8 km/h
543 04-01-2020 21:35:00 6.4 C 6.78 g/m*3 6.4 C 4.8 km/h
544 04-01-2020 21:40:00 6.3 C 6.81 g/m*3 5.1 C 6.4 km/h
545 04-01-2020 21:45:00 6.2 C 6.77 g/m*3 3.84 C 11.3 km/h
546 04-01-2020 21:50:00 6.2 C 6.77 g/m*3 4.98 C 6.4 km/h
547 04-01-2020 21:55:00 6.2 C 6.84 g/m*3 6.2 C 4.8 km/h
548 04-01-2020 22:00:00 6.2 C 6.84 g/m*3 4.98 C 6.4 km/h
549 04-01-2020 22:05:00 6.2 C 6.84 g/m*3 6.2 C 4.8 km/h
550 04-01-2020 22:10:00 6.2 C 6.84 g/m*3 6.2 C 4.8 km/h
Sensor: Nr:Datum:Temp:Abs-Feuchte:Windchill:Wind:
Aussen-T/F 551 04-01-2020 22:15:00 6.1 C 6.87 g/m*3 6.1 C 4.8 km/h
552 04-01-2020 22:20:00 6.1 C 6.87 g/m*3 6.1 C 4.8 km/h
553 04-01-2020 22:25:00 6.1 C 6.87 g/m*3 4.86 C 6.4 km/h
554 04-01-2020 22:30:00 6.1 C 6.87 g/m*3 4.4 C 8.1 km/h
555 04-01-2020 22:35:00 6.1 C 6.87 g/m*3 4.86 C 6.4 km/h
556 04-01-2020 22:40:00 6.1 C 6.87 g/m*3 6.1 C 4.8 km/h
557 04-01-2020 22:45:00 6.1 C 6.87 g/m*3 4.86 C 6.4 km/h
558 04-01-2020 22:50:00 6.1 C 6.87 g/m*3 6.1 C 3.2 km/h
559 04-01-2020 22:55:00 6.1 C 6.87 g/m*3 6.1 C 3.2 km/h
560 04-01-2020 23:00:00 6.1 C 6.87 g/m*3 6.1 C 3.2 km/h
561 04-01-2020 23:05:00 6.1 C 6.87 g/m*3 6.1 C 4.8 km/h
562 04-01-2020 23:10:00 6.1 C 6.87 g/m*3 6.1 C 3.2 km/h
563 04-01-2020 23:15:00 6.1 C 6.87 g/m*3 4.86 C 6.4 km/h
564 04-01-2020 23:20:00 6.1 C 6.79 g/m*3 4.86 C 6.4 km/h
565 04-01-2020 23:25:00 6.1 C 6.79 g/m*3 4.4 C 8.1 km/h
566 04-01-2020 23:30:00 6.1 C 6.79 g/m*3 4.86 C 6.4 km/h
567 04-01-2020 23:35:00 6.1 C 6.79 g/m*3 4.86 C 6.4 km/h
568 04-01-2020 23:40:00 6.2 C 6.84 g/m*3 6.2 C 4.8 km/h
569 04-01-2020 23:45:00 6.2 C 6.84 g/m*3 4.98 C 6.4 km/h
570 04-01-2020 23:50:00 6.2 C 6.84 g/m*3 6.2 C 4.8 km/h
571 04-01-2020 23:55:00 6.2 C 6.84 g/m*3 6.2 C 3.2 km/h
572 05-01-2020 00:00:00 6.2 C 6.84 g/m*3 6.2 C 3.2 km/h
573 05-01-2020 00:05:00 6.2 C 6.84 g/m*3 6.2 C 4.8 km/h
574 05-01-2020 00:10:00 6.2 C 6.84 g/m*3 6.2 C 3.2 km/h
575 05-01-2020 00:15:00 6.2 C 6.84 g/m*3 6.2 C 1.6 km/h
Sensor: Nr:Datum:Temp:Abs-Feuchte:Windchill:Wind:
Aussen-T/F 576 05-01-2020 00:20:00 6.2 C 6.84 g/m*3 6.2 C 3.2 km/h
577 05-01-2020 00:25:00 6.1 C 6.79 g/m*3 6.1 C 1.6 km/h
578 05-01-2020 00:30:00 6.1 C 6.79 g/m*3 6.1 C 1.6 km/h
579 05-01-2020 00:35:00 6.1 C 6.79 g/m*3 6.1 C 4.8 km/h
580 05-01-2020 00:40:00 6.1 C 6.79 g/m*3 6.1 C 4.8 km/h
581 05-01-2020 00:45:00 6.1 C 6.79 g/m*3 6.1 C 4.8 km/h
582 05-01-2020 00:50:00 6.1 C 6.79 g/m*3 4.86 C 6.4 km/h
583 05-01-2020 00:55:00 6.1 C 6.79 g/m*3 6.1 C 3.2 km/h
584 05-01-2020 01:00:00 6.1 C 6.79 g/m*3 6.1 C 4.8 km/h
585 05-01-2020 01:05:00 6.1 C 6.79 g/m*3 6.1 C 3.2 km/h
586 05-01-2020 01:10:00 6 C 6.75 g/m*3 6 C 4.8 km/h
587 05-01-2020 01:15:00 6 C 6.82 g/m*3 6 C 1.6 km/h
588 05-01-2020 01:20:00 5.9 C 6.78 g/m*3 5.9 C 3.2 km/h
589 05-01-2020 01:25:00 5.9 C 6.78 g/m*3 5.9 C 4.8 km/h
590 05-01-2020 01:30:00 5.9 C 6.78 g/m*3 5.9 C 4.8 km/h
591 05-01-2020 01:35:00 5.8 C 6.73 g/m*3 5.8 C 1.6 km/h
592 05-01-2020 01:40:00 5.8 C 6.73 g/m*3 5.8 C 1.6 km/h
593 05-01-2020 01:45:00 5.8 C 6.73 g/m*3 5.8 C 3.2 km/h
594 05-01-2020 01:50:00 5.8 C 6.73 g/m*3 5.8 C 1.6 km/h
595 05-01-2020 01:55:00 5.7 C 6.69 g/m*3 5.7 C 3.2 km/h
596 05-01-2020 02:00:00 5.7 C 6.69 g/m*3 5.7 C 3.2 km/h
597 05-01-2020 02:05:00 5.7 C 6.76 g/m*3 5.7 C 4.8 km/h
598 05-01-2020 02:10:00 5.7 C 6.76 g/m*3 5.7 C 4.8 km/h
599 05-01-2020 02:15:00 5.7 C 6.76 g/m*3 5.7 C 3.2 km/h
600 05-01-2020 02:20:00 5.6 C 6.72 g/m*3 5.6 C 0 km/h
Sensor: Nr:Datum:Temp:Abs-Feuchte:Windchill:Wind:
Aussen-T/F 601 05-01-2020 02:25:00 5.6 C 6.72 g/m*3 5.6 C 0 km/h
602 05-01-2020 02:30:00 5.6 C 6.72 g/m*3 5.6 C 0 km/h
603 05-01-2020 02:35:00 5.6 C 6.72 g/m*3 5.6 C 0 km/h
604 05-01-2020 02:40:00 5.6 C 6.72 g/m*3 5.6 C 0 km/h
605 05-01-2020 02:45:00 5.6 C 6.72 g/m*3 5.6 C 0 km/h
606 05-01-2020 02:50:00 5.6 C 6.72 g/m*3 5.6 C 4.8 km/h
607 05-01-2020 02:55:00 5.5 C 6.67 g/m*3 5.5 C 1.6 km/h
608 05-01-2020 03:00:00 5.5 C 6.67 g/m*3 5.5 C 4.8 km/h
609 05-01-2020 03:05:00 5.4 C 6.63 g/m*3 5.4 C 1.6 km/h
610 05-01-2020 03:10:00 5.4 C 6.63 g/m*3 5.4 C 3.2 km/h
611 05-01-2020 03:15:00 5.4 C 6.63 g/m*3 5.4 C 0 km/h
612 05-01-2020 03:20:00 5.4 C 6.63 g/m*3 5.4 C 0 km/h
613 05-01-2020 03:25:00 5.3 C 6.58 g/m*3 5.3 C 1.6 km/h
614 05-01-2020 03:30:00 5.3 C 6.58 g/m*3 5.3 C 0 km/h
615 05-01-2020 03:35:00 5.3 C 6.58 g/m*3 5.3 C 0 km/h
616 05-01-2020 03:40:00 5.3 C 6.58 g/m*3 5.3 C 0 km/h
617 05-01-2020 03:45:00 5.3 C 6.58 g/m*3 5.3 C 0 km/h
618 05-01-2020 03:50:00 5.3 C 6.58 g/m*3 5.3 C 0 km/h
619 05-01-2020 03:55:00 5.3 C 6.58 g/m*3 5.3 C 0 km/h
620 05-01-2020 04:00:00 5.3 C 6.65 g/m*3 5.3 C 1.6 km/h
621 05-01-2020 04:05:00 5.3 C 6.65 g/m*3 5.3 C 3.2 km/h
622 05-01-2020 04:10:00 5.3 C 6.65 g/m*3 5.3 C 1.6 km/h
623 05-01-2020 04:15:00 5.3 C 6.65 g/m*3 5.3 C 1.6 km/h
624 05-01-2020 04:20:00 5.3 C 6.65 g/m*3 5.3 C 0 km/h
625 05-01-2020 04:25:00 5.3 C 6.65 g/m*3 5.3 C 0 km/h
Sensor: Nr:Datum:Temp:Abs-Feuchte:Windchill:Wind:
Aussen-T/F 626 05-01-2020 04:30:00 5.3 C 6.65 g/m*3 5.3 C 0 km/h
627 05-01-2020 04:35:00 5.3 C 6.65 g/m*3 5.3 C 0 km/h
628 05-01-2020 04:40:00 5.2 C 6.61 g/m*3 5.2 C 3.2 km/h
629 05-01-2020 04:45:00 5.2 C 6.61 g/m*3 5.2 C 0 km/h
630 05-01-2020 04:50:00 5.2 C 6.61 g/m*3 5.2 C 0 km/h
631 05-01-2020 04:55:00 5.2 C 6.61 g/m*3 5.2 C 0 km/h
632 05-01-2020 05:00:00 5.3 C 6.65 g/m*3 5.3 C 1.6 km/h
633 05-01-2020 05:05:00 5.3 C 6.65 g/m*3 5.3 C 1.6 km/h
634 05-01-2020 05:10:00 5.3 C 6.65 g/m*3 5.3 C 0 km/h
635 05-01-2020 05:15:00 5.3 C 6.65 g/m*3 5.3 C 0 km/h
636 05-01-2020 05:20:00 5.3 C 6.65 g/m*3 5.3 C 0 km/h
637 05-01-2020 05:25:00 5.3 C 6.65 g/m*3 5.3 C 0 km/h
638 05-01-2020 05:30:00 5.3 C 6.65 g/m*3 5.3 C 0 km/h
639 05-01-2020 05:35:00 5.3 C 6.65 g/m*3 5.3 C 0 km/h
640 05-01-2020 05:40:00 5.3 C 6.65 g/m*3 5.3 C 1.6 km/h
641 05-01-2020 05:45:00 5.3 C 6.65 g/m*3 5.3 C 0 km/h
642 05-01-2020 05:50:00 5.4 C 6.7 g/m*3 5.4 C 1.6 km/h
643 05-01-2020 05:55:00 5.4 C 6.7 g/m*3 5.4 C 0 km/h
644 05-01-2020 06:00:00 5.4 C 6.7 g/m*3 5.4 C 1.6 km/h
645 05-01-2020 06:05:00 5.4 C 6.7 g/m*3 5.4 C 0 km/h
646 05-01-2020 06:10:00 5.4 C 6.7 g/m*3 5.4 C 0 km/h
647 05-01-2020 06:15:00 5.4 C 6.7 g/m*3 5.4 C 0 km/h
648 05-01-2020 06:20:00 5.4 C 6.7 g/m*3 5.4 C 3.2 km/h
649 05-01-2020 06:25:00 5.4 C 6.7 g/m*3 5.4 C 3.2 km/h
650 05-01-2020 06:30:00 5.4 C 6.7 g/m*3 5.4 C 0 km/h
Sensor: Nr:Datum:Temp:Abs-Feuchte:Windchill:Wind:
Aussen-T/F 651 05-01-2020 06:35:00 5.4 C 6.7 g/m*3 5.4 C 0 km/h
652 05-01-2020 06:40:00 5.4 C 6.7 g/m*3 5.4 C 1.6 km/h
653 05-01-2020 06:45:00 5.4 C 6.7 g/m*3 5.4 C 0 km/h
654 05-01-2020 06:50:00 5.4 C 6.7 g/m*3 5.4 C 0 km/h
655 05-01-2020 06:55:00 5.4 C 6.7 g/m*3 5.4 C 1.6 km/h
656 05-01-2020 07:00:00 5.4 C 6.7 g/m*3 5.4 C 0 km/h
657 05-01-2020 07:05:00 5.4 C 6.7 g/m*3 5.4 C 0 km/h
658 05-01-2020 07:10:00 5.4 C 6.7 g/m*3 5.4 C 0 km/h
659 05-01-2020 07:15:00 5.4 C 6.7 g/m*3 5.4 C 0 km/h
660 05-01-2020 07:20:00 5.4 C 6.7 g/m*3 5.4 C 0 km/h
661 05-01-2020 07:25:00 5.4 C 6.7 g/m*3 5.4 C 1.6 km/h
662 05-01-2020 07:30:00 5.4 C 6.7 g/m*3 5.4 C 0 km/h
663 05-01-2020 07:35:00 5.4 C 6.7 g/m*3 5.4 C 0 km/h
664 05-01-2020 07:40:00 5.3 C 6.65 g/m*3 5.3 C 0 km/h
665 05-01-2020 07:45:00 5.3 C 6.65 g/m*3 5.3 C 0 km/h
666 05-01-2020 07:50:00 5.3 C 6.65 g/m*3 5.3 C 1.6 km/h
667 05-01-2020 07:55:00 5.3 C 6.65 g/m*3 5.3 C 0 km/h
668 05-01-2020 08:00:00 5.2 C 6.61 g/m*3 5.2 C 0 km/h
669 05-01-2020 08:05:00 5.2 C 6.61 g/m*3 5.2 C 1.6 km/h
670 05-01-2020 08:10:00 5.2 C 6.61 g/m*3 5.2 C 1.6 km/h
671 05-01-2020 08:15:00 5.2 C 6.61 g/m*3 5.2 C 0 km/h
672 05-01-2020 08:20:00 5.2 C 6.61 g/m*3 5.2 C 0 km/h
673 05-01-2020 08:25:00 5.2 C 6.61 g/m*3 5.2 C 0 km/h
674 05-01-2020 08:30:00 5.2 C 6.61 g/m*3 5.2 C 0 km/h
675 05-01-2020 08:35:00 5.1 C 6.57 g/m*3 5.1 C 1.6 km/h
Sensor: Nr:Datum:Temp:Abs-Feuchte:Windchill:Wind:
Aussen-T/F 676 05-01-2020 08:40:00 5.2 C 6.61 g/m*3 5.2 C 1.6 km/h
677 05-01-2020 08:45:00 5.2 C 6.61 g/m*3 5.2 C 0 km/h
678 05-01-2020 09:10:00 5.2 C 6.61 g/m*3 5.2 C 4.8 km/h
679 05-01-2020 09:15:00 5.2 C 6.61 g/m*3 5.2 C 3.2 km/h
680 05-01-2020 09:20:00 5.3 C 6.65 g/m*3 5.3 C 4.8 km/h
681 05-01-2020 09:25:00 5.3 C 6.65 g/m*3 5.3 C 3.2 km/h
682 05-01-2020 09:30:00 5.3 C 6.65 g/m*3 5.3 C 1.6 km/h
683 05-01-2020 09:35:00 5.3 C 6.65 g/m*3 5.3 C 4.8 km/h
684 05-01-2020 09:40:00 5.4 C 6.7 g/m*3 4.06 C 6.4 km/h
685 05-01-2020 09:45:00 5.4 C 6.7 g/m*3 4.06 C 6.4 km/h
686 05-01-2020 09:50:00 5.4 C 6.7 g/m*3 4.06 C 6.4 km/h
687 05-01-2020 09:55:00 5.5 C 6.74 g/m*3 4.17 C 6.4 km/h
688 05-01-2020 10:00:00 5.6 C 6.79 g/m*3 5.6 C 3.2 km/h
689 05-01-2020 10:05:00 5.6 C 6.79 g/m*3 4.29 C 6.4 km/h
690 05-01-2020 10:10:00 5.7 C 6.83 g/m*3 4.4 C 6.4 km/h
691 05-01-2020 10:15:00 5.7 C 6.83 g/m*3 5.7 C 4.8 km/h
692 05-01-2020 10:20:00 5.8 C 6.81 g/m*3 4.52 C 6.4 km/h
693 05-01-2020 10:25:00 5.8 C 6.81 g/m*3 5.8 C 4.8 km/h
694 05-01-2020 10:30:00 5.8 C 6.81 g/m*3 3.36 C 11.3 km/h
695 05-01-2020 10:35:00 5.9 C 6.85 g/m*3 5.9 C 4.8 km/h
696 05-01-2020 10:40:00 5.9 C 6.85 g/m*3 4.17 C 8.1 km/h
697 05-01-2020 10:45:00 5.9 C 6.85 g/m*3 4.63 C 6.4 km/h
698 05-01-2020 10:50:00 5.9 C 6.78 g/m*3 5.9 C 4.8 km/h
699 05-01-2020 10:55:00 6 C 6.82 g/m*3 6 C 3.2 km/h
700 05-01-2020 11:00:00 6.1 C 6.87 g/m*3 6.1 C 4.8 km/h
Sensor: Nr:Datum:Temp:Abs-Feuchte:Windchill:Wind:
Aussen-T/F 701 05-01-2020 11:05:00 6.1 C 6.87 g/m*3 4.86 C 6.4 km/h
702 05-01-2020 11:10:00 6.2 C 6.91 g/m*3 4.52 C 8.1 km/h
703 05-01-2020 11:15:00 6.2 C 6.91 g/m*3 6.2 C 1.6 km/h
704 05-01-2020 11:20:00 6.2 C 6.84 g/m*3 4.52 C 8.1 km/h
705 05-01-2020 11:25:00 6.2 C 6.91 g/m*3 6.2 C 4.8 km/h
706 05-01-2020 11:30:00 6.3 C 6.88 g/m*3 6.3 C 4.8 km/h
707 05-01-2020 11:35:00 6.3 C 6.88 g/m*3 6.3 C 4.8 km/h
708 05-01-2020 11:40:00 6.3 C 6.88 g/m*3 4.64 C 8.1 km/h
709 05-01-2020 11:45:00 6.4 C 6.93 g/m*3 6.4 C 3.2 km/h
710 05-01-2020 11:50:00 6.4 C 6.93 g/m*3 5.21 C 6.4 km/h
711 05-01-2020 11:55:00 6.4 C 6.93 g/m*3 6.4 C 4.8 km/h
712 05-01-2020 12:00:00 6.5 C 6.97 g/m*3 4.87 C 8.1 km/h
713 05-01-2020 12:05:00 6.5 C 6.9 g/m*3 4.87 C 8.1 km/h
714 05-01-2020 12:10:00 6.5 C 6.97 g/m*3 6.5 C 4.8 km/h
715 05-01-2020 12:15:00 6.5 C 6.9 g/m*3 5.33 C 6.4 km/h
716 05-01-2020 12:20:00 6.6 C 6.95 g/m*3 6.6 C 3.2 km/h
717 05-01-2020 12:25:00 6.6 C 6.95 g/m*3 6.6 C 4.8 km/h
718 05-01-2020 12:30:00 6.6 C 6.95 g/m*3 6.6 C 4.8 km/h
719 05-01-2020 12:35:00 6.6 C 6.95 g/m*3 6.6 C 3.2 km/h
720 05-01-2020 12:40:00 6.7 C 6.99 g/m*3 6.7 C 4.8 km/h
721 05-01-2020 12:45:00 6.7 C 6.99 g/m*3 5.56 C 6.4 km/h
722 05-01-2020 12:50:00 6.7 C 6.99 g/m*3 5.56 C 6.4 km/h
723 05-01-2020 12:55:00 6.7 C 6.99 g/m*3 6.7 C 3.2 km/h
724 05-01-2020 13:00:00 6.8 C 7.04 g/m*3 6.8 C 4.8 km/h
725 05-01-2020 13:05:00 6.8 C 7.04 g/m*3 6.8 C 4.8 km/h
Sensor: Nr:Datum:Temp:Abs-Feuchte:Windchill:Wind:
Aussen-T/F 726 05-01-2020 13:10:00 6.8 C 7.04 g/m*3 6.8 C 4.8 km/h
727 05-01-2020 13:15:00 6.9 C 7.08 g/m*3 5.79 C 6.4 km/h
728 05-01-2020 13:20:00 6.9 C 7.01 g/m*3 5.79 C 6.4 km/h
729 05-01-2020 13:25:00 6.9 C 7.01 g/m*3 5.34 C 8.1 km/h
730 05-01-2020 13:30:00 6.9 C 7.01 g/m*3 6.9 C 4.8 km/h
731 05-01-2020 13:35:00 6.9 C 7.01 g/m*3 6.9 C 4.8 km/h
732 05-01-2020 13:40:00 7 C 7.05 g/m*3 7 C 3.2 km/h
733 05-01-2020 13:45:00 7.1 C 7.1 g/m*3 7.1 C 3.2 km/h
734 05-01-2020 13:50:00 7.1 C 7.1 g/m*3 7.1 C 4.8 km/h
735 05-01-2020 13:55:00 7.1 C 7.1 g/m*3 6.02 C 6.4 km/h
736 05-01-2020 14:00:00 7.1 C 7.1 g/m*3 7.1 C 3.2 km/h
737 05-01-2020 14:05:00 7.2 C 7.06 g/m*3 7.2 C 4.8 km/h
738 05-01-2020 14:10:00 7.2 C 7.06 g/m*3 7.2 C 4.8 km/h
739 05-01-2020 14:15:00 7.2 C 7.06 g/m*3 7.2 C 3.2 km/h
740 05-01-2020 14:20:00 7.2 C 7.06 g/m*3 7.2 C 1.6 km/h
741 05-01-2020 14:25:00 7.2 C 7.06 g/m*3 7.2 C 3.2 km/h
742 05-01-2020 14:30:00 7.2 C 7.06 g/m*3 7.2 C 1.6 km/h
743 05-01-2020 14:35:00 7.2 C 7.06 g/m*3 7.2 C 3.2 km/h
744 05-01-2020 14:40:00 7.2 C 7.06 g/m*3 7.2 C 1.6 km/h
745 05-01-2020 14:45:00 7.2 C 7.06 g/m*3 7.2 C 0 km/h
746 05-01-2020 14:50:00 7.3 C 7.11 g/m*3 7.3 C 0 km/h
747 05-01-2020 14:55:00 7.3 C 7.11 g/m*3 6.25 C 6.4 km/h
748 05-01-2020 15:00:00 7.3 C 7.11 g/m*3 7.3 C 3.2 km/h
749 05-01-2020 15:05:00 7.2 C 7.06 g/m*3 7.2 C 3.2 km/h
750 05-01-2020 15:10:00 7.2 C 7.06 g/m*3 7.2 C 3.2 km/h
Sensor: Nr:Datum:Temp:Abs-Feuchte:Windchill:Wind:
Aussen-T/F 751 05-01-2020 15:15:00 7.2 C 7.06 g/m*3 7.2 C 0 km/h
752 05-01-2020 15:20:00 7.2 C 7.06 g/m*3 7.2 C 0 km/h
753 05-01-2020 15:25:00 7.3 C 7.11 g/m*3 7.3 C 0 km/h
754 05-01-2020 15:30:00 7.2 C 7.14 g/m*3 7.2 C 0 km/h
755 05-01-2020 15:35:00 7.2 C 7.14 g/m*3 7.2 C 0 km/h
756 05-01-2020 15:40:00 7.2 C 7.14 g/m*3 7.2 C 0 km/h
757 05-01-2020 15:45:00 7.2 C 7.14 g/m*3 7.2 C 0 km/h
758 05-01-2020 15:50:00 7.2 C 7.14 g/m*3 7.2 C 0 km/h
759 05-01-2020 15:55:00 7.1 C 7.1 g/m*3 7.1 C 0 km/h
760 05-01-2020 16:00:00 7.1 C 7.1 g/m*3 7.1 C 0 km/h
761 05-01-2020 16:05:00 7 C 7.05 g/m*3 7 C 0 km/h
762 05-01-2020 16:10:00 7 C 7.13 g/m*3 7 C 0 km/h
763 05-01-2020 16:15:00 6.9 C 7.08 g/m*3 6.9 C 0 km/h
764 05-01-2020 16:20:00 6.9 C 7.08 g/m*3 6.9 C 0 km/h
765 05-01-2020 16:25:00 6.8 C 7.04 g/m*3 6.8 C 0 km/h
766 05-01-2020 16:30:00 6.8 C 7.04 g/m*3 6.8 C 0 km/h
767 05-01-2020 16:35:00 6.7 C 6.99 g/m*3 6.7 C 0 km/h
768 05-01-2020 16:40:00 6.6 C 6.95 g/m*3 6.6 C 0 km/h
769 05-01-2020 16:45:00 6.6 C 6.95 g/m*3 6.6 C 0 km/h
770 05-01-2020 16:50:00 6.6 C 6.95 g/m*3 6.6 C 0 km/h
771 05-01-2020 16:55:00 6.5 C 6.9 g/m*3 6.5 C 0 km/h
772 05-01-2020 17:00:00 6.4 C 6.85 g/m*3 6.4 C 0 km/h
773 05-01-2020 17:05:00 6.4 C 6.85 g/m*3 6.4 C 0 km/h
774 05-01-2020 17:10:00 6.3 C 6.81 g/m*3 6.3 C 0 km/h
775 05-01-2020 17:15:00 6.3 C 6.81 g/m*3 6.3 C 0 km/h
Sensor: Nr:Datum:Temp:Abs-Feuchte:Windchill:Wind:
Aussen-T/F 776 05-01-2020 17:20:00 6.3 C 6.81 g/m*3 6.3 C 3.2 km/h
777 05-01-2020 17:25:00 6.2 C 6.77 g/m*3 6.2 C 1.6 km/h
778 05-01-2020 17:30:00 6.2 C 6.77 g/m*3 6.2 C 1.6 km/h
779 05-01-2020 17:35:00 6.2 C 6.77 g/m*3 6.2 C 3.2 km/h
780 05-01-2020 17:40:00 6.2 C 6.77 g/m*3 6.2 C 3.2 km/h
781 05-01-2020 17:45:00 6.1 C 6.72 g/m*3 6.1 C 3.2 km/h
782 05-01-2020 17:50:00 6.1 C 6.65 g/m*3 6.1 C 1.6 km/h
783 05-01-2020 17:55:00 6.2 C 6.69 g/m*3 6.2 C 3.2 km/h
784 05-01-2020 18:00:00 6.2 C 6.69 g/m*3 6.2 C 1.6 km/h
785 05-01-2020 18:05:00 6.2 C 6.77 g/m*3 6.2 C 1.6 km/h
786 05-01-2020 18:10:00 6.2 C 6.69 g/m*3 6.2 C 3.2 km/h
787 05-01-2020 18:15:00 6.2 C 6.69 g/m*3 6.2 C 1.6 km/h
788 05-01-2020 18:20:00 6.1 C 6.65 g/m*3 6.1 C 1.6 km/h
789 05-01-2020 18:25:00 6.1 C 6.58 g/m*3 6.1 C 3.2 km/h
790 05-01-2020 18:30:00 6.1 C 6.58 g/m*3 6.1 C 3.2 km/h
791 05-01-2020 18:35:00 6.1 C 6.58 g/m*3 6.1 C 3.2 km/h
792 05-01-2020 18:40:00 6.2 C 6.62 g/m*3 6.2 C 1.6 km/h
793 05-01-2020 18:45:00 6.2 C 6.62 g/m*3 6.2 C 4.8 km/h
794 05-01-2020 18:50:00 6.2 C 6.55 g/m*3 6.2 C 1.6 km/h
795 05-01-2020 18:55:00 6.2 C 6.62 g/m*3 6.2 C 0 km/h
796 05-01-2020 19:00:00 6.2 C 6.55 g/m*3 6.2 C 0 km/h
797 05-01-2020 19:05:00 6.2 C 6.62 g/m*3 6.2 C 0 km/h
798 05-01-2020 19:10:00 6.2 C 6.62 g/m*3 6.2 C 1.6 km/h
799 05-01-2020 19:15:00 6.1 C 6.5 g/m*3 6.1 C 1.6 km/h
800 05-01-2020 19:20:00 6.1 C 6.5 g/m*3 6.1 C 0 km/h
Sensor: Nr:Datum:Temp:Abs-Feuchte:Windchill:Wind:
Aussen-T/F 801 05-01-2020 19:25:00 6.1 C 6.58 g/m*3 6.1 C 0 km/h
802 05-01-2020 19:30:00 6.1 C 6.58 g/m*3 6.1 C 0 km/h
803 05-01-2020 19:35:00 6.1 C 6.58 g/m*3 6.1 C 0 km/h
804 05-01-2020 19:40:00 6.1 C 6.58 g/m*3 6.1 C 1.6 km/h
805 05-01-2020 19:45:00 6.1 C 6.58 g/m*3 6.1 C 0 km/h
806 05-01-2020 19:50:00 6.1 C 6.58 g/m*3 6.1 C 0 km/h
807 05-01-2020 19:55:00 6 C 6.53 g/m*3 6 C 0 km/h
808 05-01-2020 20:00:00 6 C 6.6 g/m*3 6 C 0 km/h
809 05-01-2020 20:05:00 5.9 C 6.56 g/m*3 5.9 C 1.6 km/h
810 05-01-2020 20:10:00 5.9 C 6.49 g/m*3 5.9 C 1.6 km/h
811 05-01-2020 20:15:00 5.9 C 6.49 g/m*3 5.9 C 0 km/h
812 05-01-2020 20:20:00 5.9 C 6.49 g/m*3 5.9 C 0 km/h
813 05-01-2020 20:25:00 5.9 C 6.49 g/m*3 5.9 C 0 km/h
814 05-01-2020 20:30:00 5.9 C 6.49 g/m*3 5.9 C 1.6 km/h
815 05-01-2020 20:35:00 5.9 C 6.49 g/m*3 5.9 C 0 km/h
816 05-01-2020 20:40:00 5.9 C 6.49 g/m*3 5.9 C 0 km/h
817 05-01-2020 20:45:00 5.9 C 6.49 g/m*3 5.9 C 0 km/h
818 05-01-2020 20:50:00 5.9 C 6.49 g/m*3 5.9 C 0 km/h
819 05-01-2020 20:55:00 5.9 C 6.49 g/m*3 5.9 C 0 km/h
820 05-01-2020 21:00:00 5.9 C 6.49 g/m*3 5.9 C 0 km/h
821 05-01-2020 21:05:00 5.9 C 6.56 g/m*3 5.9 C 0 km/h
822 05-01-2020 21:10:00 5.9 C 6.56 g/m*3 5.9 C 0 km/h
823 05-01-2020 21:15:00 5.8 C 6.45 g/m*3 5.8 C 0 km/h
824 05-01-2020 21:20:00 5.8 C 6.52 g/m*3 5.8 C 0 km/h
825 05-01-2020 21:25:00 5.8 C 6.52 g/m*3 5.8 C 0 km/h
Sensor: Nr:Datum:Temp:Abs-Feuchte:Windchill:Wind:
Aussen-T/F 826 05-01-2020 21:30:00 5.8 C 6.52 g/m*3 5.8 C 0 km/h
827 05-01-2020 21:35:00 5.8 C 6.52 g/m*3 5.8 C 0 km/h
828 05-01-2020 21:40:00 5.8 C 6.52 g/m*3 5.8 C 0 km/h
829 05-01-2020 21:45:00 5.7 C 6.48 g/m*3 5.7 C 0 km/h
830 05-01-2020 21:50:00 5.7 C 6.48 g/m*3 5.7 C 0 km/h
831 05-01-2020 21:55:00 5.7 C 6.55 g/m*3 5.7 C 0 km/h
832 05-01-2020 22:00:00 5.7 C 6.55 g/m*3 5.7 C 0 km/h
833 05-01-2020 22:05:00 5.7 C 6.55 g/m*3 5.7 C 0 km/h
834 05-01-2020 22:10:00 5.7 C 6.55 g/m*3 5.7 C 0 km/h
835 05-01-2020 22:15:00 5.6 C 6.5 g/m*3 5.6 C 0 km/h
836 05-01-2020 22:20:00 5.6 C 6.5 g/m*3 5.6 C 0 km/h
837 05-01-2020 22:25:00 5.6 C 6.5 g/m*3 5.6 C 0 km/h
838 05-01-2020 22:30:00 5.6 C 6.5 g/m*3 5.6 C 0 km/h
839 05-01-2020 22:35:00 5.6 C 6.5 g/m*3 5.6 C 0 km/h
840 05-01-2020 22:40:00 5.5 C 6.46 g/m*3 5.5 C 0 km/h
841 05-01-2020 22:45:00 5.5 C 6.46 g/m*3 5.5 C 0 km/h
842 05-01-2020 22:50:00 5.5 C 6.46 g/m*3 5.5 C 0 km/h
843 05-01-2020 22:55:00 5.4 C 6.42 g/m*3 5.4 C 0 km/h
844 05-01-2020 23:00:00 5.4 C 6.49 g/m*3 5.4 C 0 km/h
845 05-01-2020 23:05:00 5.4 C 6.49 g/m*3 5.4 C 0 km/h
846 05-01-2020 23:10:00 5.4 C 6.49 g/m*3 5.4 C 0 km/h
847 05-01-2020 23:15:00 5.4 C 6.49 g/m*3 5.4 C 0 km/h
848 05-01-2020 23:20:00 5.3 C 6.45 g/m*3 5.3 C 0 km/h
849 05-01-2020 23:25:00 5.3 C 6.45 g/m*3 5.3 C 0 km/h
850 05-01-2020 23:30:00 5.3 C 6.45 g/m*3 5.3 C 0 km/h
Sensor: Nr:Datum:Temp:Abs-Feuchte:Windchill:Wind:
Aussen-T/F 851 05-01-2020 23:35:00 5.3 C 6.45 g/m*3 5.3 C 0 km/h
852 05-01-2020 23:40:00 5.3 C 6.45 g/m*3 5.3 C 0 km/h
853 05-01-2020 23:45:00 5.2 C 6.33 g/m*3 5.2 C 0 km/h
854 05-01-2020 23:50:00 5.2 C 6.33 g/m*3 5.2 C 0 km/h
855 05-01-2020 23:55:00 5.2 C 6.33 g/m*3 5.2 C 0 km/h

Legende:
   Min
   Max


Maximal/Minimal-Werte vom 03.01.2020 - 05.01.2020

Sensor Min Max Avg
Temp
(Aussen-T/F)
1.9 °C
04-01-2020  09:05:00
9.7 °C
03-01-2020  18:45:00
6.33 °C
Abs-Feuchte
(Aussen-T/F)
5.19 g/m*3
04-01-2020  09:05:00
8.5 g/m*3
03-01-2020  20:55:00
6.77 g/m*3
Windchill
(Aussen-T/F)
0.22 C
04-01-2020  06:45:00
8.68 C
03-01-2020  20:50:00
5.43 C

Die Daten stammen von einer Davis Vantage Pro 2 Wetter-Station und werden unter Linux mit der Software wview2wettercgi und aufbereitet. Alle Angaben erfolgen ohne Gewähr für ihre Vollständigkeit oder Richtigkeit.
Kontakt: Rainer Krienke krienke@uni-koblenz.de . Meine Webseiten an der Uni Koblenz oder privat.
Version: $Revision: 0.78 $